Weather observations for the past three days for
La Porte Municipal Airport
Imperial (Metric)
Date Time (cdt) Wind (mph) Vis. (mi.) Weather Sky Cond. Temperature (ºF) Relative Humidity Wind Chill (°F) Heat Index (°F) Pressure Precipitation (in)
Air Dwpt 6 hour altimeter (in) sea level (mb) 1 hr 3 hr 6 hr
Max. Min.
05 06:15 Calm 10.00 Fair CLR 77 75.2 94% 78 29.92 0.0
05 05:55 Calm 10.00 Fair CLR 77 75.2 94% 78 29.91 0.0
05 05:15 Calm 10.00 Fair CLR 77 75.2 94% 78 29.91 0.0
05 04:55 Calm 10.00 Fair CLR 77 75.2 94% 78 29.91 0.0
05 04:35 Calm 10.00 Fair CLR 77 75.2 94% 78 29.91 0.0
05 04:15 Calm 10.00 Fair CLR 77 77 100% 78 29.91 0.0
05 03:55 Calm 10.00 Fair CLR 78.8 77 94% 83 29.9 0.0
05 03:35 Calm 10.00 Fair CLR 77 77 100% 78 29.9 0.0
05 03:15 Calm 10.00 Fair CLR 78.8 77 94% 83 29.9 0.0
05 02:55 Calm 10.00 Fair CLR 78.8 77 94% 83 29.91 0.0
05 02:35 Calm 10.00 Fair CLR 78.8 77 94% 83 29.91 0.0
05 02:15 Calm 10.00 Fair CLR 80.6 77 89% 87 29.91 0.0
05 01:55 Calm 10.00 Fair CLR 80.6 77 89% 87 29.92 0.0
05 01:35 Calm 10.00 Fair CLR 80.6 77 89% 87 29.93 0.0
05 01:15 Calm 10.00 Fair CLR 82.4 77 84% 91 29.93 0.0
05 00:55 SW 7 10.00 Partly Cloudy SCT023 82.4 77 84% 91 29.93 0.0
05 00:35 SW 5 10.00 Partly Cloudy SCT023 82.4 77 84% 91 29.93 0.0
05 00:15 S 3 10.00 Partly Cloudy SCT023 82.4 77 84% 91 29.93 0.0
04 23:55 Calm 10.00 Fair CLR 82.4 77 84% 91 29.93 0.0
04 23:35 S 3 10.00 Fair CLR 82.4 77 84% 91 29.93 0.0
04 23:15 S 5 10.00 Fair CLR 82.4 77 84% 91 29.94 0.0
04 22:55 S 6 10.00 Fair CLR 84.2 77 79% 94 29.94 0.0
04 22:35 S 6 10.00 Fair CLR 84.2 77 79% 94 29.94 0.0
04 22:15 S 6 10.00 Fair CLR 84.2 77 79% 94 29.94 0.0
04 21:55 S 7 10.00 Fair CLR 84.2 77 79% 94 29.94 0.0
04 21:35 S 7 10.00 Fair CLR 84.2 77 79% 94 29.93 0.0
04 21:15 S 7 10.00 Fair CLR 84.2 77 79% 94 29.93 0.0
04 20:55 S 8 10.00 Fair CLR 84.2 77 79% 94 29.92 0.0
04 20:35 SE 6 10.00 Fair CLR 84.2 77 79% 94 29.92 0.0
04 20:15 S 5 10.00 Fair CLR 86 77 75% 97 29.92 0.0
04 19:55 S 9 10.00 Fair CLR 84.2 75.2 74% 92 29.91 0.0
04 19:35 SE 8 10.00 Fair CLR 86 75.2 70% 95 29.9 0.0
04 19:15 SE 9 10.00 Fair CLR 86 75.2 70% 95 29.9 0.0
04 18:55 SE 9 10.00 Fair CLR 87.8 75.2 66% 98 29.9 0.0
04 18:35 SE 9 10.00 Fair CLR 87.8 75.2 66% 98 29.9 0.0
04 18:15 SE 9 10.00 Fair CLR 89.6 75.2 63% 100 29.9 0.0
04 17:55 SE 12 10.00 Fair CLR 89.6 73.4 59% 98 29.9 0.0
04 17:35 SE 12 10.00 Fair CLR 89.6 75.2 63% 100 29.91 0.0
04 17:15 E 12 10.00 Fair CLR 89.6 75.2 63% 100 29.9 0.0
04 16:55 SE 10 10.00 Fair CLR 89.6 75.2 63% 100 29.9 0.0
04 16:35 SE 13 10.00 Fair CLR 89.6 75.2 63% 100 29.91 0.0
04 16:15 SE 13 10.00 Fair CLR 89.6 75.2 63% 100 29.91 0.0
04 15:55 SE 12 10.00 Fair CLR 89.6 75.2 63% 100 29.92 0.0
04 15:35 SE 7 10.00 Partly Cloudy SCT043 91.4 73.4 56% 100 29.92 0.0
04 15:15 E 8 10.00 Thunderstorm in Vicinity SCT041 SCT060 91.4 73.4 56% 100 29.94 0.0
04 14:55 S 6 10.00 Thunderstorm SCT041 SCT049 SCT060 87.8 73.4 62% 96 29.94 0.0
04 14:35 S 5 5.00 Thunderstorm Haze in Vicinity SCT040 91.4 73.4 56% 100 29.94 0.0
04 14:15 W 8 5.00 Partly Cloudy with Haze SCT040 SCT048 89.6 73.4 59% 98 29.95 0.0
04 13:55 W 6 10.00 Partly Cloudy SCT042 87.8 73.4 62% 96 29.95 0.0
04 13:35 Calm 10.00 Fair CLR 89.6 73.4 59% 98 29.96 0.0
04 13:15 E 6 10.00 Thunderstorm in Vicinity SCT033 SCT038 SCT085 91.4 75.2 59% 103 29.97 0.0
04 12:55 SE 9 5.00 Partly Cloudy with Haze SCT033 SCT039 91.4 75.2 59% 103 29.97 0.0
04 12:35 E 7 4.00 Fair with Haze CLR 89.6 75.2 63% 100 29.98 0.0
04 12:15 E 5 10.00 Fair CLR 87.8 73.4 62% 96 29.98 0.0
04 11:55 NE 3 10.00 Fair CLR 87.8 73.4 62% 96 29.99 0.0
04 11:35 NE 7 10.00 Fair CLR 86 73.4 66% 93 29.99 0.0
04 11:15 NE 10 10.00 Partly Cloudy SCT024 SCT035 SCT055 84.2 73.4 70% 91 29.99 0.0
04 10:55 N 10 10.00 Thunderstorm in Vicinity SCT024 BKN033 BKN070 86 75.2 70% 95 29.99 0.0
04 10:35 NE 7 10.00 Thunderstorm SCT024 SCT043 OVC070 84.2 77 79% 94 29.99 0.0
04 10:15 SE 9 5.00 Thunderstorm Haze in Vicinity SCT023 BKN033 OVC060 82.4 78.8 89% 92 29.98 0.0
04 09:55 SE 15 10.00 Thunderstorm in Vicinity SCT021 SCT027 BKN033 84.2 77 79% 94 29.97 0.0
04 09:35 Calm 10.00 Partly Cloudy SCT021 SCT070 86 77 75% 97 29.97 0.0
04 09:15 Calm 10.00 Partly Cloudy SCT080 86 77 75% 97 29.96 0.0
04 08:55 SE 5 10.00 Partly Cloudy SCT080 86 77 75% 97 29.96 0.0
04 08:35 E 5 10.00 Thunderstorm SCT080 84.2 77 79% 94 29.96 0.0
04 08:15 E 6 10.00 Fair CLR 84.2 78.8 84% 96 29.95 0.0
04 07:55 E 5 10.00 Fair CLR 82.4 78.8 89% 92 29.95 0.0
04 07:35 Calm 10.00 Fair CLR 80.6 78.8 94% 88 29.94 0.0
04 07:15 NE 3 10.00 Fair CLR 80.6 77 89% 87 29.94 0.0
04 06:55 Calm 10.00 Partly Cloudy SCT023 SCT038 80.6 78.8 94% 88 29.93 0.0
04 06:35 Calm 10.00 Partly Cloudy SCT025 SCT038 78.8 77 94% 83 29.93 0.0
04 06:15 Calm 10.00 Fair CLR 78.8 77 94% 83 29.93 0.0
04 05:55 Calm 10.00 Fair CLR 80.6 77 89% 87 29.93 0.0
04 05:35 Calm 10.00 Thunderstorm in Vicinity CLR 80.6 77 89% 87 29.93 0.0
04 05:15 Calm 10.00 Thunderstorm CLR 80.6 77 89% 87 29.92 0.0
04 04:55 Calm 10.00 Partly Cloudy SCT022 80.6 77 89% 87 29.91 0.0
04 04:35 Calm 10.00 Partly Cloudy SCT022 80.6 77 89% 87 29.91 0.0
04 04:15 Calm 10.00 Fair CLR 80.6 77 89% 87 29.91 0.0
04 03:55 SW 3 10.00 Fair CLR 82.4 77 84% 91 29.91 0.0
04 03:35 SW 5 10.00 Fair CLR 82.4 77 84% 91 29.91 0.0
04 03:15 SW 3 10.00 Partly Cloudy SCT021 82.4 77 84% 91 29.91 0.0
04 02:55 SW 8 10.00 Partly Cloudy SCT021 82.4 77 84% 91 29.91 0.0
04 02:35 S 6 10.00 Partly Cloudy SCT021 82.4 77 84% 91 29.92 0.0
04 02:15 S 8 10.00 Fair CLR 82.4 77 84% 91 29.92 0.0
04 01:55 S 7 10.00 Fair CLR 82.4 77 84% 91 29.92 0.0
04 01:35 SW 8 10.00 Fair CLR 82.4 77 84% 91 29.92 0.0
04 01:15 S 6 10.00 Fair CLR 84.2 77 79% 94 29.92 0.0
04 00:55 S 8 10.00 Fair CLR 84.2 77 79% 94 29.92 0.0
04 00:35 S 9 10.00 Partly Cloudy SCT021 84.2 77 79% 94 29.92 0.0
04 00:15 S 10 10.00 Fair CLR 84.2 77 79% 94 29.92 0.0
03 23:55 SE 8 10.00 Partly Cloudy SCT021 SCT031 84.2 78.8 84% 96 29.92 0.0
03 23:35 SE 12 10.00 Fair CLR 84.2 78.8 84% 96 29.92 0.0
03 23:15 SE 9 10.00 Fair CLR 84.2 77 79% 94 29.93 0.0
03 22:55 SE 10 10.00 Fair CLR 84.2 77 79% 94 29.92 0.0
03 22:35 SE 7 10.00 Fair CLR 84.2 77 79% 94 29.93 0.0
03 22:15 SE 9 10.00 Fair CLR 84.2 77 79% 94 29.93 0.0
03 21:55 SE 8 10.00 Fair CLR 84.2 77 79% 94 29.93 0.0
03 21:35 SE 8 10.00 Fair CLR 84.2 77 79% 94 29.92 0.0
03 21:15 SE 7 10.00 Fair CLR 84.2 77 79% 94 29.92 0.0
03 20:55 SE 7 10.00 Fair CLR 84.2 77 79% 94 29.91 0.0
03 20:35 SE 9 10.00 Fair CLR 84.2 77 79% 94 29.9 0.0
03 20:15 SE 9 10.00 Fair CLR 84.2 78.8 84% 96 29.9 0.0
03 19:55 E 7 10.00 Fair CLR 84.2 77 79% 94 29.9 0.0
03 19:35 SE 7 10.00 Fair CLR 84.2 77 79% 94 29.9 0.0
03 19:15 SE 9 10.00 Fair CLR 84.2 77 79% 94 29.9 0.0
03 18:55 SE 10 10.00 Fair CLR 86 77 75% 97 29.9 0.0
03 18:35 SE 12 10.00 Fair CLR 86 77 75% 97 29.9 0.0
03 18:15 SE 9 10.00 Fair CLR 86 77 75% 97 29.9 0.0
03 17:55 SE 10 10.00 Fair CLR 86 77 75% 97 29.9 0.0
03 17:35 SE 12 10.00 Fair CLR 87.8 75.2 66% 98 29.91 0.0
03 17:15 E 8 10.00 Fair CLR 87.8 77 70% 100 29.91 0.0
03 16:55 E 10 10.00 Thunderstorm in Vicinity SCT043 87.8 77 70% 100 29.91 0.0
03 16:35 SE 9 10.00 Thunderstorm in Vicinity SCT043 BKN095 87.8 75.2 66% 98 29.93 0.0
03 16:15 E 6 10.00 Thunderstorm SCT095 86 75.2 70% 95 29.94 0.0
03 15:55 E 9 10.00 Thunderstorm in Vicinity SCT037 SCT050 SCT110 86 75.2 70% 95 29.94 0.0
03 15:35 SE 13 10.00 Thunderstorm SCT037 SCT050 BKN075 86 77 75% 97 29.94 0.0
03 15:15 SE 15 10.00 Thunderstorm SCT050 SCT065 BKN085 87.8 77 70% 100 29.93 0.0
03 14:55 E 15 G 23 10.00 Partly Cloudy SCT060 87.8 77 70% 100 29.93 0.0
03 14:35 SE 13 10.00 Thunderstorm in Vicinity CLR 91.4 75.2 59% 103 29.94 0.0
03 14:15 SE 12 10.00 Fair CLR 91.4 77 63% 105 29.93 0.0
03 13:55 SE 7 10.00 Fair CLR 89.6 77 67% 103 29.94 0.0
03 13:35 SE 7 10.00 Thunderstorm in Vicinity CLR 89.6 77 67% 103 29.94 0.0
03 13:15 SE 8 10.00 Partly Cloudy SCT034 89.6 77 67% 103 29.95 0.0
03 12:55 E 5 10.00 Mostly Cloudy SCT026 BKN034 BKN040 89.6 77 67% 103 29.97 0.0
03 12:35 E 7 10.00 Mostly Cloudy SCT026 SCT031 BKN070 87.8 77 70% 100 29.97 0.0
03 12:15 S 5 10.00 Partly Cloudy SCT028 87.8 77 70% 100 29.97 0.0
03 11:55 SE 3 10.00 Fair CLR 89.6 77 67% 103 29.98 0.0
03 11:35 Calm 10.00 Fair CLR 86 78.8 79% 99 29.98 0.0
03 11:15 Calm 10.00 Fair CLR 84.2 78.8 84% 96 29.97 0.0
03 10:55 Calm 10.00 Partly Cloudy SCT048 SCT050 80.6 77 89% 87 29.97 0.0
03 10:35 NE 3 10.00 Mostly Cloudy SCT044 BKN050 BKN070 78.8 77 94% 83 29.97 0.0
03 10:15 NE 5 10.00 Mostly Cloudy SCT050 SCT070 BKN080 78.8 77 94% 83 29.97 0.0
03 09:55 E 3 10.00 Partly Cloudy SCT080 SCT090 78.8 75.2 89% 82 29.97 0.0
03 09:35 E 3 10.00 Mostly Cloudy SCT050 SCT070 BKN090 78.8 75.2 89% 82 29.97 0.0
03 09:15 Calm 10.00 Mostly Cloudy SCT060 SCT070 BKN090 78.8 73.4 84% 82 29.98 0.0
03 08:55 NE 5 10.00 Thunderstorm SCT070 BKN075 BKN090 78.8 73.4 84% 82 29.98 0.0
03 08:35 SE 3 10.00 Thunderstorm BKN110 80.6 73.4 79% 85 29.98 0.0
03 08:15 SE 5 10.00 Thunderstorm SCT018 SCT022 SCT110 80.6 73.4 79% 85 29.98 0.0
03 07:55 S 14 7.00 Thunderstorm SCT018 SCT024 BKN031 82.4 75.2 79% 89 29.97 0.0
03 07:35 S 5 10.00 Thunderstorm SCT060 82.4 78.8 89% 92 29.96 0.0
03 07:15 SW 3 10.00 Thunderstorm in Vicinity SCT030 SCT035 SCT110 82.4 78.8 89% 92 29.95 0.0
03 06:55 SW 3 10.00 Thunderstorm BKN026 OVC033 82.4 78.8 89% 92 29.95 0.0
03 06:35 SW 5 10.00 Mostly Cloudy BKN026 BKN055 BKN070 84.2 78.8 84% 96 29.95 0.0
03 06:15 S 7 10.00 Mostly Cloudy SCT065 SCT080 BKN110 82.4 78.8 89% 92 29.94 0.0
03 05:55 S 9 10.00 Partly Cloudy SCT022 84.2 78.8 84% 96 29.94 0.0
03 05:35 S 7 10.00 Partly Cloudy SCT020 SCT120 84.2 78.8 84% 96 29.94 0.0
03 05:15 S 10 10.00 Partly Cloudy SCT120 84.2 78.8 84% 96 29.93 0.0
03 04:55 S 6 10.00 Partly Cloudy SCT019 84.2 78.8 84% 96 29.93 0.0
03 04:35 S 6 10.00 Partly Cloudy SCT021 SCT120 84.2 78.8 84% 96 29.93 0.0
03 04:15 S 5 10.00 Partly Cloudy SCT021 SCT026 SCT120 84.2 78.8 84% 96 29.94 0.0
03 03:55 S 7 10.00 Mostly Cloudy BKN021 BKN028 84.2 78.8 84% 96 29.94 0.0
03 03:35 S 6 10.00 Partly Cloudy SCT019 SCT025 84.2 78.8 84% 96 29.94 0.0
03 03:15 S 6 10.00 Partly Cloudy SCT019 84.2 78.8 84% 96 29.93 0.0
03 02:55 S 8 10.00 Partly Cloudy SCT019 84.2 78.8 84% 96 29.93 0.0
03 02:30 S 14 10.00 Mostly Cloudy BKN019 84.2 78.8 84% 96 29.93 0.0
03 02:15 S 8 10.00 Mostly Cloudy BKN019 84.2 78.8 84% 96 29.93 0.0
03 01:55 S 12 10.00 Partly Cloudy SCT019 84.2 78.8 84% 96 29.94 0.0
03 01:35 S 10 10.00 Partly Cloudy SCT019 SCT026 84.2 78.8 84% 96 29.94 0.0
03 01:15 S 15 10.00 Fair CLR 84.2 78.8 84% 96 29.95 0.0
03 00:55 S 15 10.00 Partly Cloudy SCT022 SCT028 SCT034 84.2 78.8 84% 96 29.96 0.0
03 00:35 S 12 G 17 10.00 Partly Cloudy SCT022 84.2 77 79% 94 29.96 0.0
03 00:15 S 12 10.00 Partly Cloudy SCT024 84.2 77 79% 94 29.96 0.0
02 23:55 S 13 10.00 Partly Cloudy SCT024 84.2 77 79% 94 29.96 0.0
02 23:35 S 10 10.00 Partly Cloudy SCT024 84.2 77 79% 94 29.97 0.0
02 23:15 SE 10 10.00 Mostly Cloudy BKN024 BKN032 86 77 75% 97 29.97 0.0
02 22:55 S 10 10.00 Partly Cloudy SCT026 SCT034 86 77 75% 97 29.97 0.0
02 22:35 S 10 10.00 Partly Cloudy SCT026 SCT033 SCT045 86 77 75% 97 29.96 0.0
02 22:15 SE 9 10.00 Mostly Cloudy SCT026 BKN032 BKN045 86 77 75% 97 29.97 0.0
02 21:55 SE 9 10.00 Mostly Cloudy BKN025 BKN032 86 77 75% 97 29.95 0.0
02 21:35 S 13 10.00 Mostly Cloudy BKN023 BKN030 86 78.8 79% 99 29.94 0.0
02 21:15 S 10 10.00 Partly Cloudy BKN021 SCT032 86 78.8 79% 99 29.93 0.0
02 20:55 SE 13 10.00 Mostly Cloudy BKN021 BKN025 BKN032 86 78.8 79% 99 29.93 0.0
02 20:35 S 8 10.00 Mostly Cloudy BKN021 86 78.8 79% 99 29.93 0.0
02 20:15 S 15 10.00 Partly Cloudy SCT021 86 77 75% 97 29.93 0.0
02 19:55 S 14 10.00 Fair CLR 86 77 75% 97 29.92 0.0
02 19:35 S 10 10.00 Fair CLR 86 77 75% 97 29.92 0.0
02 19:15 S 15 10.00 Fair CLR 87.8 77 70% 100 29.9 0.0
02 18:55 S 16 G 21 10.00 Fair CLR 87.8 75.2 66% 98 29.9 0.0
02 18:35 S 15 10.00 Fair CLR 89.6 73.4 59% 98 29.9 0.0
02 18:15 S 16 10.00 Fair CLR 89.6 75.2 63% 100 29.9 0.0
02 17:55 S 14 10.00 Fair CLR 91.4 75.2 59% 103 29.89 0.0
02 17:35 S 14 G 20 10.00 Fair CLR 91.4 75.2 59% 103 29.9 0.0
02 17:15 S 17 10.00 Fair CLR 93.2 75.2 56% 105 29.9 0.0
02 16:55 S 14 10.00 Fair CLR 93.2 75.2 56% 105 29.9 0.0
02 16:35 S 16 G 21 10.00 Partly Cloudy SCT041 SCT050 SCT055 93.2 75.2 56% 105 29.9 0.0
02 16:15 S 16 10.00 Mostly Cloudy SCT041 BKN048 BKN055 91.4 78.8 67% 108 29.9 0.0
02 15:55 SE 14 10.00 Mostly Cloudy SCT037 BKN049 91.4 77 63% 105 29.91 0.0
02 15:35 SE 17 10.00 Partly Cloudy SCT047 91.4 77 63% 105 29.91 0.0
02 15:15 SW 7 10.00 Fair CLR 95 73.4 50% 105 29.92 0.0
02 14:55 SW 8 10.00 Fair CLR 93.2 73.4 53% 103 29.93 0.0
02 14:35 S 7 10.00 Fair CLR 93.2 75.2 56% 105 29.94 0.0
02 14:15 SW 10 10.00 Fair CLR 93.2 73.4 53% 103 29.94 0.0
02 13:55 S 10 10.00 Partly Cloudy SCT040 91.4 73.4 56% 100 29.94 0.0
02 13:35 SW 8 10.00 Partly Cloudy SCT040 91.4 75.2 59% 103 29.95 0.0
02 13:15 SW 9 10.00 Partly Cloudy SCT038 91.4 75.2 59% 103 29.96 0.0
02 12:55 SW 13 10.00 Partly Cloudy SCT036 91.4 75.2 59% 103 29.97 0.0
02 12:35 W 12 G 18 10.00 Partly Cloudy SCT032 91.4 75.2 59% 103 29.98 0.0
02 12:15 W 9 10.00 Mostly Cloudy SCT027 BKN035 89.6 77 67% 103 29.99 0.0
02 11:55 SW 15 10.00 Mostly Cloudy BKN026 BKN034 89.6 77 67% 103 30 0.0
02 11:35 SW 13 10.00 Partly Cloudy SCT024 SCT030 87.8 78.8 75% 102 30 0.0
02 11:15 SW 12 10.00 Partly Cloudy SCT019 SCT026 86 77 75% 97 30 0.0
02 10:55 W 12 10.00 Mostly Cloudy BKN017 BKN022 86 78.8 79% 99 30 0.0
02 10:35 W 10 10.00 Mostly Cloudy BKN017 BKN023 86 78.8 79% 99 30 0.0
02 10:15 W 8 10.00 Partly Cloudy SCT015 84.2 78.8 84% 96 30 0.0
02 09:55 SW 9 10.00 Fair CLR 84.2 78.8 84% 96 29.99 0.0
02 09:35 SW 8 10.00 Fair CLR 82.4 78.8 89% 92 29.99 0.0
02 09:15 SW 7 10.00 Fair CLR 82.4 77 84% 91 29.98 0.0
02 08:55 SW 6 10.00 Fair CLR 80.6 77 89% 87 29.99 0.0
02 08:35 SW 6 10.00 Partly Cloudy SCT024 SCT075 80.6 75.2 84% 86 29.99 0.0
02 08:15 SW 5 10.00 Fair CLR 80.6 75.2 84% 86 29.98 0.0
02 07:55 SW 9 10.00 Fair CLR 80.6 75.2 84% 86 29.97 0.0
02 07:35 SW 8 7.00 Partly Cloudy SCT014 SCT019 80.6 77 89% 87 29.97 0.0
02 07:15 SW 14 10.00 Mostly Cloudy SCT014 BKN021 80.6 77 89% 87 29.95 0.0
02 06:55 SW 8 10.00 Partly Cloudy SCT021 SCT025 SCT050 80.6 77 89% 87 29.95 0.0
02 06:35 SW 8 10.00 Mostly Cloudy SCT025 BKN033 BKN046 80.6 77 89% 87 29.95 0.0
Date Time (cdt) Wind (mph) Vis. (mi.) Weather Sky Cond. Air Dwpt Max. Min. Relative Humidity Wind Chill (°F) Heat Index (°F) altimeter (in) sea level (mb) 1 hr 3 hr 6 hr
6 hour
Temperature (ºF) Pressure Precipitation (in)